Location: Strawberry
(45.6646°N, 111.9596°W)
Time: 22:35:08
(UTC+00:00)

X-37B - Pass Details

Date: 26 August 2022
Orbit: 330 x 340 km, 45.0° (Epoch: 02 September)

Event Time Altitude Azimuth Distance (km) Brightness Sun altitude
Rises 04:37:05 0° 273° (W) 2,098 5.1 -21.8°
Reaches altitude 10° 04:39:05 10° 272° (W) 1,264 3.8 -22.1°
Enters shadow 04:40:16 22° 269° (W) 785 2.6 -22.2°
